SCP
0 0 0 0 -0 0 0 0 0 0 0 0 0 0 0 0 0 0 1 0 1 1 1 1 0 0 0 0 0 0 0 0
0 0 0 0 -0 0 0 0 0 0 0 0 0 0 0 0 0 0 0 0 0 0 1 0 0 0 0 0 0 0 0 0
0 -0 0 0 0 0 0 0 0 0 0 0 0 0 0 0 0 0 1 1 1 1 1 0 0 0 0 0 0 0 0 0
0 -0 0 -0 0 0 0 0 0 0 0 0 0 0 0 0 0 0 1 1 1 1 1 0 0 0 0 0 0 0 0 0
0 0 -0 0 0 0 0 0 0 0 0 0 0 0 0 0 0 -0 1 1 1 0 1 0 0 0 0 1 0 0 0 0
0 0 0 0 0 0 0 0 0 0 0 0 0 0 0 0 0 0 0 1 0 0 0 1 0 0 0 1 1 1 1 1
-0 0 0 0 0 0 0 0 0 0 0 0 0 0 0 0 0 0 2 2 0 -0 0 0 0 1 1 1 1 1 1 1
0 0 0 0 0 0 0 0 0 0 0 0 0 0 0 0 0 0 0 1 2 1 0 0 0 1 1 1 1 1 0 0
0 0 0 0 0 0 0 0 0 0 0 0 0 0 0 0 0 0 0 1 1 2 1 0 0 1 1 1 1 1 0 0
0 0 0 0 -0 -0 0 -0 0 0 0 0 0 0 0 0 0 0 0 0 2 2 2 0 0 2 1 1 1 1 0 0
0 0 0 -0 -0 -0 -0 -0 0 0 0 0 0 0 0 0 0 0 0 0 1 3 4 1 1 1 0 0 0 0 0 0
-0 -0 0 0 0 0 -0 -0 0 0 0 0 0 0 0 0 0 0 0 0 0 2 3 3 1 1 0 0 0 0 0 0
0 -0 0 0 0 0 -0 0 0 0 0 0 0 0 0 0 0 0 0 0 0 3 2 5 2 5 1 0 0 0 0 1
-0 0 0 0 0 0 0 0 0 0 0 0 0 0 0 0 0 0 0 0 0 0 3 3 3 2 3 1 1 0 0 1
0 0 0 0 0 -0 0 0 0 0 0 0 0 0 0 0 0 0 0 0 0 0 3 3 3 4 3 4 1 1 1 1
0 0 0 0 0 -0 0 0 -0 0 0 0 0 0 0 0 0 0 0 0 0 0 0 2 4 5 3 3 3 3 2 2
0 0 0 0 -0 -0 -0 0 0 0 0 0 0 0 0 0 0 0 0 0 1 0 0 6 3 5 4 2 2 2 1 2
0 0 0 -0 0 0 -0 0 0 0 0 0 0 0 0 0 0 1 0 1 0 1 0 2 5 5 4 3 2 2 2 2
0 0 0 0 0 0 0 0 0 0 0 0 0 0 0 0 0 0 1 1 0 1 0 2 3 6 5 3 3 3 2 4
0 0 0 -0 0 0 0 0 0 0 0 0 0 0 0 0 0 0 1 1 1 0 0 2 4 5 5 4 2 2 2 2
Wind_Speed_500mb
10 25 31 30 39 21 23 23 12 8 12 19 14 31 14 16 13 14 19 15 40 45 41 41 40 42 41 38 31 30 34 36
19 37 35 44 37 10 14 8 5 10 16 11 16 11 19 15 13 14 15 10 29 50 45 42 41 43 45 43 37 33 33 36
26 35 37 39 44 24 9 20 24 12 23 1 21 19 14 13 9 8 16 24 18 46 47 44 41 41 46 46 41 36 35 36
25 36 44 35 13 3 5 21 32 14 15 6 19 14 11 10 2 2 21 28 26 29 48 46 44 43 45 49 46 41 37 36
34 34 40 12 14 9 11 20 33 32 18 15 3 21 12 6 9 4 17 28 25 24 48 50 47 45 47 49 49 44 40 39
34 32 35 25 6 9 11 26 42 35 14 17 27 15 15 15 15 15 19 30 25 27 39 58 54 49 48 49 50 48 44 41
34 25 22 38 24 12 5 30 24 39 42 39 53 41 35 27 23 23 28 20 21 23 34 58 55 54 51 51 51 51 48 46
22 22 23 31 28 33 35 37 41 44 54 51 53 50 49 38 34 31 28 34 40 30 30 47 42 56 57 57 57 56 55 52
24 24 26 28 32 34 34 33 41 40 43 48 46 49 48 43 40 37 38 29 37 44 42 41 42 49 58 61 60 60 59 54
24 27 30 29 37 39 41 45 45 45 46 47 50 53 48 47 42 41 41 35 40 47 49 55 50 59 52 65 62 64 63 57
25 37 41 44 42 45 52 51 48 49 48 49 48 51 50 56 52 48 49 35 21 47 57 61 54 64 54 61 62 61 61 57
44 48 45 41 36 36 51 48 46 45 43 42 41 47 47 49 52 52 53 50 33 36 53 64 60 55 56 49 49 59 54 58
44 41 26 32 37 39 55 44 33 31 35 40 44 45 47 43 46 50 46 51 60 29 53 74 65 52 58 54 57 56 56 58
16 23 22 22 43 32 39 39 36 37 40 38 37 45 48 44 40 45 49 43 48 46 56 73 74 74 53 56 57 57 58 61
32 38 35 39 40 37 49 54 48 49 53 48 49 52 47 48 49 46 46 56 57 50 51 67 79 78 61 64 65 55 58 62
37 38 38 39 41 39 49 56 54 54 53 51 49 48 49 57 57 51 49 53 55 68 55 70 63 77 75 71 64 55 62 58
39 35 36 37 44 47 47 42 35 28 35 38 40 36 31 30 48 53 52 57 65 64 76 49 70 80 96 77 68 70 65 62
34 33 36 42 49 49 32 18 29 39 33 28 32 39 38 38 40 40 60 63 61 68 76 65 70 76 84 89 67 77 64 68
38 40 40 48 37 30 20 21 43 59 56 47 43 37 40 40 41 52 53 64 67 74 75 63 67 76 73 84 77 71 62 68
39 39 32 39 27 26 21 16 23 39 55 65 69 75 59 57 63 58 61 64 69 68 68 67 63 75 79 89 93 78 77 75
Wind_Direction_500mb
221 235 247 265 278 358 28 79 49 292 297 317 59 61 68 53 65 99 224 227 200 189 188 190 188 181 181 188 193 189 186 182
256 257 243 236 265 29 347 352 143 282 283 84 66 89 63 53 70 104 179 237 193 193 189 193 192 188 186 189 192 193 189 188
246 250 262 281 288 73 339 294 297 215 260 356 111 98 70 49 51 150 172 208 212 196 193 196 193 195 191 192 194 196 193 191
250 250 246 241 51 353 260 274 288 248 276 55 125 140 103 58 63 184 197 216 234 214 200 199 197 194 198 194 198 196 197 194
267 281 295 329 70 19 336 294 278 315 258 242 29 117 97 11 319 159 204 207 233 229 210 201 201 197 197 199 199 200 199 200
276 279 279 296 51 122 284 283 286 311 302 273 249 1 337 321 296 265 218 197 233 251 225 202 202 199 201 201 204 203 202 204
260 284 336 351 349 311 235 266 278 285 287 286 284 307 296 295 284 279 168 174 210 250 216 204 204 203 201 202 209 207 205 205
22 348 330 328 326 310 306 292 278 270 276 272 275 281 278 271 267 264 238 215 200 206 225 207 200 210 202 204 203 207 209 206
330 337 325 310 300 294 288 278 276 278 277 279 280 278 279 273 262 256 263 221 195 205 202 212 196 222 210 208 205 207 212 211
307 306 300 294 294 287 281 278 280 279 276 274 275 279 279 275 271 258 256 259 215 201 205 207 193 221 221 211 209 208 212 214
288 287 283 282 279 280 278 278 275 272 270 266 267 268 265 270 274 271 273 270 231 210 203 208 198 219 227 213 212 211 212 213
289 282 276 273 284 297 284 284 277 268 261 259 259 269 268 263 261 261 264 264 266 232 216 201 205 212 218 212 210 208 208 211
267 254 249 266 271 258 270 275 260 271 273 271 265 256 265 268 263 251 253 259 251 253 224 212 206 204 214 206 204 206 203 211
304 204 256 270 276 278 278 278 288 282 281 268 251 254 259 264 264 259 247 244 253 247 228 218 211 204 205 201 201 207 205 212
317 321 309 286 282 285 281 273 271 265 268 247 247 248 248 250 256 259 255 247 243 246 242 226 215 210 212 200 206 204 201 207
300 300 290 284 289 297 307 298 288 282 276 272 262 256 247 248 245 246 247 240 239 239 242 230 230 219 209 210 206 202 201 204
285 299 331 314 306 294 283 282 309 336 323 315 329 315 279 275 252 243 243 243 235 237 239 252 230 214 212 212 207 200 208 206
308 334 318 297 284 274 289 337 322 292 329 345 318 308 304 299 280 273 244 238 240 229 232 246 233 225 219 210 207 202 205 203
319 308 290 285 293 320 330 13 18 3 358 347 338 334 325 311 279 263 262 245 238 234 232 242 231 221 225 218 206 204 204 199
304 300 298 299 298 310 39 25 10 351 344 338 330 324 317 302 295 281 254 248 237 232 229 236 227 218 221 218 207 206 204 198
Wind_Speed_850mb
10 25 31 30 39 21 23 23 12 8 12 19 14 31 14 16 13 14 19 15 40 45 41 41 40 42 41 38 31 30 34 36
19 37 35 44 37 10 14 8 5 10 16 11 16 11 19 15 13 14 15 10 29 50 45 42 41 43 45 43 37 33 33 36
26 35 37 39 44 24 9 20 24 12 23 1 21 19 14 13 9 8 16 24 18 46 47 44 41 41 46 46 41 36 35 36
25 36 44 35 13 3 5 21 32 14 15 6 19 14 11 10 2 2 21 28 26 29 48 46 44 43 45 49 46 41 37 36
34 34 40 12 14 9 11 20 33 32 18 15 3 21 12 6 9 4 17 28 25 24 48 50 47 45 47 49 49 44 40 39
34 32 35 25 6 9 11 26 42 35 14 17 27 15 15 15 15 15 19 30 25 27 39 58 54 49 48 49 50 48 44 41
34 25 22 38 24 12 5 30 24 39 42 39 53 41 35 27 23 23 28 20 21 23 34 58 55 54 51 51 51 51 48 46
22 22 23 31 28 33 35 37 41 44 54 51 53 50 49 38 34 31 28 34 40 30 30 47 42 56 57 57 57 56 55 52
24 24 26 28 32 34 34 33 41 40 43 48 46 49 48 43 40 37 38 29 37 44 42 41 42 49 58 61 60 60 59 54
24 27 30 29 37 39 41 45 45 45 46 47 50 53 48 47 42 41 41 35 40 47 49 55 50 59 52 65 62 64 63 57
25 37 41 44 42 45 52 51 48 49 48 49 48 51 50 56 52 48 49 35 21 47 57 61 54 64 54 61 62 61 61 57
44 48 45 41 36 36 51 48 46 45 43 42 41 47 47 49 52 52 53 50 33 36 53 64 60 55 56 49 49 59 54 58
44 41 26 32 37 39 55 44 33 31 35 40 44 45 47 43 46 50 46 51 60 29 53 74 65 52 58 54 57 56 56 58
16 23 22 22 43 32 39 39 36 37 40 38 37 45 48 44 40 45 49 43 48 46 56 73 74 74 53 56 57 57 58 61
32 38 35 39 40 37 49 54 48 49 53 48 49 52 47 48 49 46 46 56 57 50 51 67 79 78 61 64 65 55 58 62
37 38 38 39 41 39 49 56 54 54 53 51 49 48 49 57 57 51 49 53 55 68 55 70 63 77 75 71 64 55 62 58
39 35 36 37 44 47 47 42 35 28 35 38 40 36 31 30 48 53 52 57 65 64 76 49 70 80 96 77 68 70 65 62
34 33 36 42 49 49 32 18 29 39 33 28 32 39 38 38 40 40 60 63 61 68 76 65 70 76 84 89 67 77 64 68
38 40 40 48 37 30 20 21 43 59 56 47 43 37 40 40 41 52 53 64 67 74 75 63 67 76 73 84 77 71 62 68
39 39 32 39 27 26 21 16 23 39 55 65 69 75 59 57 63 58 61 64 69 68 68 67 63 75 79 89 93 78 77 75
Wind_Direction_850mb
221 235 247 265 278 358 28 79 49 292 297 317 59 61 68 53 65 99 224 227 200 189 188 190 188 181 181 188 193 189 186 182
256 257 243 236 265 29 347 352 143 282 283 84 66 89 63 53 70 104 179 237 193 193 189 193 192 188 186 189 192 193 189 188
246 250 262 281 288 73 339 294 297 215 260 356 111 98 70 49 51 150 172 208 212 196 193 196 193 195 191 192 194 196 193 191
250 250 246 241 51 353 260 274 288 248 276 55 125 140 103 58 63 184 197 216 234 214 200 199 197 194 198 194 198 196 197 194
267 281 295 329 70 19 336 294 278 315 258 242 29 117 97 11 319 159 204 207 233 229 210 201 201 197 197 199 199 200 199 200
276 279 279 296 51 122 284 283 286 311 302 273 249 1 337 321 296 265 218 197 233 251 225 202 202 199 201 201 204 203 202 204
260 284 336 351 349 311 235 266 278 285 287 286 284 307 296 295 284 279 168 174 210 250 216 204 204 203 201 202 209 207 205 205
22 348 330 328 326 310 306 292 278 270 276 272 275 281 278 271 267 264 238 215 200 206 225 207 200 210 202 204 203 207 209 206
330 337 325 310 300 294 288 278 276 278 277 279 280 278 279 273 262 256 263 221 195 205 202 212 196 222 210 208 205 207 212 211
307 306 300 294 294 287 281 278 280 279 276 274 275 279 279 275 271 258 256 259 215 201 205 207 193 221 221 211 209 208 212 214
288 287 283 282 279 280 278 278 275 272 270 266 267 268 265 270 274 271 273 270 231 210 203 208 198 219 227 213 212 211 212 213
289 282 276 273 284 297 284 284 277 268 261 259 259 269 268 263 261 261 264 264 266 232 216 201 205 212 218 212 210 208 208 211
267 254 249 266 271 258 270 275 260 271 273 271 265 256 265 268 263 251 253 259 251 253 224 212 206 204 214 206 204 206 203 211
304 204 256 270 276 278 278 278 288 282 281 268 251 254 259 264 264 259 247 244 253 247 228 218 211 204 205 201 201 207 205 212
317 321 309 286 282 285 281 273 271 265 268 247 247 248 248 250 256 259 255 247 243 246 242 226 215 210 212 200 206 204 201 207
300 300 290 284 289 297 307 298 288 282 276 272 262 256 247 248 245 246 247 240 239 239 242 230 230 219 209 210 206 202 201 204
285 299 331 314 306 294 283 282 309 336 323 315 329 315 279 275 252 243 243 243 235 237 239 252 230 214 212 212 207 200 208 206
308 334 318 297 284 274 289 337 322 292 329 345 318 308 304 299 280 273 244 238 240 229 232 246 233 225 219 210 207 202 205 203
319 308 290 285 293 320 330 13 18 3 358 347 338 334 325 311 279 263 262 245 238 234 232 242 231 221 225 218 206 204 204 199
304 300 298 299 298 310 39 25 10 351 344 338 330 324 317 302 295 281 254 248 237 232 229 236 227 218 221 218 207 206 204 198